Tracking 19563 objects as of 20-Mar-2019
HD Live streaming from Space Station
objects crossing your sky now

COSMOS 713

Track COSMOS 713 now!
10-day predictions
COSMOS 713 is classified as:


NORAD ID: 7680
Int'l Code: 1975-016C
Perigee: 1,402.1 km
Apogee: 1,494.2 km
Inclination: 74.0 °
Period: 114.7 minutes
Semi major axis: 7819 km
RCS: 0.6922 m2 (medium)
Launch date: February 28, 1975
Source: Commonwealth of Independent States (former USSR) (CIS)
Launch site: PLESETSK MISSILE AND SPACE COMPLEX (PKMTR)
aabbcc
Your satellite tracking list
Your tracking list is empty




NASA's NSSDC Master Catalog

Two Line Element Set (TLE):
1  7680U 75016C   19078.19307979 -.00000011 +00000-0 +34290-4 0  9995
2  7680 074.0064 339.3325 0058875 199.9085 328.8509 12.55629715019149
Source of the keplerian elements: AFSPC